CAPE
nan nan nan nan nan nan nan nan nan nan nan nan nan nan nan nan nan nan nan nan nan nan nan nan nan nan nan nan nan nan nan nan nan nan nan nan 1 1 1 1 1 0 nan nan nan nan nan nan nan nan nan nan 0 0 3 8 8 13 18 30 30 52 75 190 190 399 446 482 498 498 416 219 46 46 0 0 0 0 4 14 14 28 65 111 111 194
nan nan nan nan nan nan nan nan nan nan nan nan nan nan nan nan nan nan nan nan nan nan nan nan nan nan nan nan nan nan nan nan nan nan 0 2 4 4 3 1 1 0 nan nan nan nan nan nan nan nan nan nan nan nan 1 3 3 8 11 14 14 21 36 89 89 237 396 529 470 470 358 114 11 11 nan nan nan nan 4 2 2 8 57 144 144 230
nan nan nan nan nan nan nan nan nan nan nan nan nan nan nan nan nan nan nan nan nan nan nan nan nan nan nan nan nan nan nan nan 0 0 1 2 4 4 4 2 2 nan nan nan nan nan nan nan nan nan nan nan nan nan nan 1 1 3 6 4 4 5 8 13 13 46 103 199 186 186 114 34 nan nan nan nan 0 0 1 1 1 4 87 192 192 297
nan nan nan nan nan nan nan nan nan nan nan nan nan nan nan nan nan nan nan nan nan nan nan nan nan nan nan nan nan nan nan nan 1 1 1 0 1 1 3 3 3 0 nan nan nan nan nan nan nan nan nan nan nan nan nan 0 0 2 2 1 1 0 nan nan nan nan nan 1 6 6 6 3 nan nan nan nan 0 0 nan 0 0 0 83 209 209 319
nan nan nan nan nan nan nan nan nan nan nan nan nan nan nan nan nan nan nan nan nan nan nan nan nan nan nan nan nan nan nan 2 5 5 4 1 0 0 0 2 2 1 0 nan nan nan nan nan nan nan nan nan nan nan nan 0 0 2 2 0 0 nan nan nan nan nan nan nan nan nan nan nan nan nan nan 0 5 5 2 0 0 1 78 204 204 314
nan nan nan nan nan nan nan nan nan nan nan nan nan nan nan nan nan nan nan nan nan nan nan nan nan nan nan nan nan nan nan 4 8 8 7 4 3 3 3 7 7 8 4 1 1 nan nan nan nan nan nan nan 0 0 2 2 2 3 3 0 0 nan nan nan nan nan nan nan nan nan nan nan nan nan nan nan 3 3 18 26 26 41 85 161 161 226
nan nan nan nan nan nan nan nan nan nan nan nan nan nan nan nan nan nan nan nan nan nan nan nan nan nan nan nan nan nan nan 0 2 2 2 3 8 8 12 14 14 14 13 7 7 2 0 nan nan nan nan nan 1 1 3 3 3 3 2 1 1 nan nan nan nan nan nan nan nan nan nan nan nan nan nan nan nan nan 27 68 68 103 126 118 118 141
nan nan nan nan nan nan nan nan nan nan nan nan nan nan nan nan nan nan nan nan nan nan nan nan nan nan nan nan nan nan nan nan nan nan nan nan nan nan 5 18 18 28 31 29 29 25 17 9 9 3 0 nan nan nan nan nan nan 0 1 1 1 nan nan nan nan nan nan nan nan nan nan nan nan nan nan nan nan nan nan 62 62 202 233 140 140 93
nan nan nan nan nan nan nan nan nan nan nan nan nan nan nan nan nan nan nan nan nan nan nan nan nan nan nan nan nan nan nan nan nan nan nan nan nan nan nan 7 7 21 29 31 31 30 26 18 18 8 1 nan nan nan nan nan nan nan nan 0 0 nan nan nan nan nan nan nan nan nan nan nan nan nan nan nan nan nan nan 2 2 109 207 161 161 142
nan nan nan nan nan nan nan nan nan nan nan nan nan nan nan nan nan nan nan nan nan nan nan nan nan nan nan nan nan nan nan nan nan nan nan nan 1 1 nan nan nan nan 14 22 22 27 25 20 20 12 3 nan nan nan nan nan nan nan nan nan nan nan nan nan nan nan nan nan nan nan nan nan nan nan nan nan nan nan nan nan nan 13 85 139 139 154
nan nan nan nan nan nan nan nan nan nan nan nan nan nan nan nan nan nan nan nan nan nan nan nan nan nan nan nan nan nan nan nan nan nan nan nan nan nan nan nan nan nan nan 7 7 17 17 14 14 9 3 nan nan nan nan nan nan nan nan nan nan nan nan nan nan nan nan nan nan nan nan nan nan nan nan nan nan nan nan nan nan nan 5 65 65 121
nan nan nan nan nan nan nan nan nan nan nan nan nan nan nan nan nan nan nan nan nan nan nan nan nan nan nan nan nan nan nan nan nan nan nan nan nan nan nan nan nan nan nan nan nan nan 5 7 7 4 3 0 nan nan nan nan nan nan nan nan nan 0 0 nan nan nan nan nan nan nan nan nan nan nan nan nan nan nan nan nan nan nan nan 4 4 56
nan nan nan nan nan nan nan nan nan nan nan nan nan nan nan nan nan nan nan nan nan nan nan nan nan nan nan nan nan nan nan nan nan nan nan nan nan nan nan nan nan nan nan nan nan nan nan 4 4 8 7 3 0 0 nan nan nan nan nan nan nan 1 0 nan nan nan nan nan nan nan nan nan nan nan nan nan nan nan nan nan nan nan nan nan nan 11
nan nan nan nan nan nan nan nan nan nan nan nan nan nan nan nan nan nan nan nan nan nan nan nan nan nan nan nan nan nan nan nan nan nan nan nan nan nan nan nan nan nan nan nan nan nan nan 0 0 1 8 5 1 1 nan nan nan nan nan 0 0 1 1 nan nan nan nan nan nan nan nan nan nan nan nan nan nan nan nan nan nan nan nan nan nan nan
nan nan nan nan nan nan nan nan nan nan nan nan nan nan nan nan nan nan nan nan nan nan nan nan nan nan nan nan nan nan nan nan nan nan nan nan nan nan nan nan nan nan nan nan nan nan nan nan nan nan nan nan 1 1 1 1 1 nan nan nan nan 1 1 nan nan nan nan nan nan nan nan nan nan nan nan nan nan nan nan nan nan nan nan nan nan nan
nan nan nan nan nan nan nan nan nan nan nan nan nan nan nan nan nan nan nan nan nan nan nan nan nan nan nan nan nan nan nan nan nan nan nan nan nan nan nan nan nan nan nan nan nan nan nan nan nan nan nan 1 5 5 6 10 10 6 nan nan nan nan 1 0 0 nan nan nan nan nan nan nan nan nan nan nan nan nan nan nan nan nan nan nan nan nan
nan nan nan nan nan nan nan nan nan nan nan nan nan nan nan nan nan nan nan nan nan nan nan nan nan nan nan nan nan nan nan nan nan nan nan nan nan nan nan nan nan nan nan nan nan nan nan nan nan nan nan 4 14 14 19 21 21 15 5 nan nan nan 0 0 0 nan nan nan nan nan nan nan nan nan nan nan nan nan nan nan nan nan nan nan nan nan
nan nan nan nan nan nan nan nan nan nan nan nan nan nan nan nan nan nan nan nan nan nan nan nan nan nan nan nan nan nan nan nan nan nan nan nan nan nan nan nan nan nan nan nan nan nan nan nan nan nan nan nan 6 6 23 33 33 28 17 6 6 1 nan nan nan nan nan nan nan nan nan nan nan nan nan nan nan nan nan nan nan nan nan nan nan nan
nan nan nan nan nan nan nan nan nan nan nan nan nan nan nan nan nan nan nan nan nan nan nan nan nan nan nan nan nan nan nan nan nan nan nan nan nan nan nan nan nan nan nan nan nan nan nan nan nan nan nan nan nan nan 6 28 28 35 28 13 13 6 1 nan nan nan 0 1 nan nan nan nan nan nan nan nan nan nan nan nan nan nan nan nan nan nan
3 3 nan nan nan nan nan nan nan nan nan nan nan nan nan nan nan nan nan nan nan nan nan nan nan nan nan nan nan nan nan nan nan nan nan nan nan nan nan nan nan nan nan nan nan nan nan nan nan nan nan nan nan nan nan 10 10 32 36 22 22 10 6 2 2 0 0 1 nan nan nan nan nan nan nan nan nan nan nan nan nan nan nan nan nan nan
10 9 4 nan nan 1 nan nan nan nan nan nan nan nan nan nan nan nan nan nan nan nan nan nan nan nan nan nan nan nan nan nan nan nan 1 1 nan nan nan nan nan nan nan nan nan nan nan nan nan nan nan nan nan nan nan 1 1 26 39 33 33 20 13 8 8 4 2 1 nan nan nan nan nan nan nan nan nan nan nan nan nan nan nan nan nan nan
12 16 11 11 11 8 7 2 0 0 0 0 nan nan 1 nan nan nan nan nan nan nan 1 4 4 2 6 7 6 6 nan 10 23 23 20 11 1 1 nan nan nan nan nan nan nan nan nan nan nan nan nan nan nan nan nan nan nan 14 38 43 43 38 24 17 17 13 8 3 1 1 nan nan nan nan nan nan nan nan nan nan nan nan nan nan nan nan
8 13 15 17 17 19 21 20 20 20 28 16 16 16 10 9 10 10 14 21 21 23 28 34 34 27 12 4 2 2 nan nan 1 1 7 6 3 3 nan nan nan nan 1 nan nan nan nan nan nan nan nan nan nan nan nan nan nan 8 29 48 48 52 42 31 31 24 17 12 4 4 1 nan nan nan nan nan nan nan nan nan nan nan nan nan nan nan
7 8 11 10 10 12 16 18 21 21 24 22 19 19 1 4 14 14 26 27 27 30 28 15 15 5 0 nan nan nan nan nan nan nan 1 5 2 2 nan 2 2 11 10 2 2 nan nan nan nan nan nan 0 nan nan nan nan nan 7 25 40 40 57 60 47 47 32 26 17 8 8 4 2 nan nan nan nan nan nan nan nan nan nan nan nan nan nan
3 3 2 nan nan 5 7 4 14 14 13 10 9 9 nan 2 25 25 23 21 21 18 14 8 8 4 1 1 nan nan nan nan nan nan nan 2 2 2 1 7 7 20 25 12 12 2 1 1 1 1 nan 0 4 4 1 0 0 6 19 39 39 54 63 60 60 45 29 21 13 13 10 9 4 4 nan nan nan nan nan nan nan nan nan nan nan nan
13 14 7 13 13 35 50 54 56 56 47 15 9 9 7 14 14 14 17 15 15 9 6 7 7 4 1 0 nan nan nan nan nan nan nan nan 1 1 0 5 5 12 18 24 24 10 8 9 9 3 nan 1 18 18 9 5 5 8 17 33 33 51 65 65 65 58 39 23 17 17 15 14 9 9 2 nan nan nan nan nan nan nan nan nan nan nan
67 81 93 91 91 86 91 95 93 93 99 75 23 23 11 13 11 11 15 15 15 9 8 7 7 3 1 nan nan nan nan nan nan nan nan nan nan nan nan nan nan 0 6 17 17 22 27 32 32 18 8 2 14 14 30 17 17 17 22 40 40 58 63 68 68 64 48 28 15 15 12 17 15 15 8 1 nan nan nan nan nan nan nan nan nan nan
61 58 52 57 57 58 60 63 72 72 86 90 97 97 60 25 19 19 18 19 19 14 7 5 5 0 0 0 0 0 nan nan nan nan nan nan nan nan nan nan nan nan nan 2 2 10 26 26 26 27 19 8 13 13 42 49 49 42 46 63 63 74 76 68 68 63 53 32 18 18 7 13 15 15 8 3 1 1 0 nan nan nan nan nan nan nan
45 42 43 44 44 46 48 53 61 61 75 91 106 106 76 29 24 24 21 14 14 4 2 5 5 4 3 2 1 1 nan nan nan nan nan nan 0 0 0 nan nan nan nan nan nan 0 0 2 2 4 8 20 26 26 42 77 77 75 75 93 93 106 101 80 80 63 52 39 22 22 8 9 11 11 6 4 0 0 0 nan nan nan nan nan nan nan
7 25 35 40 40 47 40 20 30 30 60 78 96 96 89 46 30 30 25 10 10 4 8 9 9 11 7 4 1 1 nan nan nan nan nan 0 3 3 0 nan nan nan nan 0 0 nan nan nan nan nan nan 14 12 12 4 24 24 35 55 112 112 115 104 94 94 62 59 46 31 31 19 14 10 10 6 3 1 1 nan 0 0 nan nan nan nan nan
nan 0 0 14 14 15 2 nan 5 5 56 97 115 115 106 48 20 20 13 3 3 3 7 4 4 7 5 4 5 5 1 nan nan nan nan 1 3 3 1 nan nan nan nan nan nan 1 1 0 0 0 nan 3 0 0 nan 0 0 1 5 35 35 64 104 79 79 59 57 49 38 38 30 20 11 11 4 2 2 2 1 0 0 1 0 nan nan nan
nan 6 22 26 26 4 nan nan nan nan nan nan nan nan 1 nan nan nan nan nan nan nan nan 1 1 5 11 17 16 16 7 nan 2 2 1 0 2 2 nan nan nan nan nan nan nan nan 8 17 17 3 nan nan nan nan 0 4 4 nan 14 24 24 16 47 62 62 52 44 47 37 37 21 8 0 0 nan 0 1 1 4 5 5 19 24 5 5 nan
nan nan nan nan nan nan nan nan nan nan nan nan nan nan nan nan nan nan nan nan nan nan nan 0 0 5 8 9 9 9 5 1 10 10 13 0 3 3 1 0 0 nan nan 2 2 13 19 23 23 19 1 nan 0 0 5 10 10 8 9 29 29 22 26 28 28 27 41 31 20 20 14 2 nan nan 1 2 3 3 3 6 6 12 35 13 13 0
nan nan nan nan nan nan nan nan nan nan nan nan nan nan nan nan nan nan nan nan nan nan nan nan nan 2 6 4 1 1 nan nan 7 7 15 0 2 2 3 13 13 17 30 37 37 33 27 15 15 9 2 nan 0 0 7 11 11 3 2 13 13 8 14 14 14 18 23 12 2 2 6 2 9 9 6 6 6 6 4 4 4 10 15 17 17 4
nan nan nan nan nan nan nan nan nan nan nan nan nan nan nan nan nan nan nan nan nan nan nan nan nan 0 1 1 1 1 0 nan 4 4 14 1 13 13 31 37 37 45 50 43 43 32 17 5 5 1 3 4 3 3 4 2 2 0 0 5 5 11 12 20 20 41 38 30 35 35 19 12 12 12 14 12 9 9 6 5 5 10 12 13 13 5
5 0 nan nan nan nan nan nan nan nan nan nan nan nan nan nan nan nan 0 1 1 1 2 4 4 nan nan nan 0 0 6 3 16 16 18 7 13 13 25 34 34 38 39 38 38 31 17 2 2 6 9 11 8 8 3 nan nan nan 0 6 6 9 11 25 25 51 51 54 57 57 42 30 22 22 19 18 13 13 9 4 4 8 13 8 8 0
3 nan nan nan nan nan nan nan nan nan nan 0 2 2 nan nan 13 13 25 8 8 10 20 23 23 12 23 6 11 11 20 20 24 24 28 12 8 8 9 10 10 18 19 29 29 24 18 10 10 11 8 11 10 10 8 1 1 4 9 nan nan 2 1 6 6 24 46 60 64 64 68 59 59 59 54 26 18 18 18 8 8 9 8 4 4 nan
nan nan 1 2 2 4 3 nan nan nan nan nan nan nan nan nan nan nan nan nan nan nan nan 1 1 0 8 39 22 22 10 15 13 13 19 13 9 9 13 7 7 3 10 18 18 27 28 24 24 24 10 3 5 5 4 3 3 8 6 nan nan nan nan 0 0 8 16 35 50 50 60 76 94 94 96 64 52 52 36 25 25 21 9 3 3 nan
2 14 31 27 27 2 nan nan nan nan nan nan nan nan nan nan nan nan nan nan nan nan nan nan nan nan nan nan 5 5 4 nan nan nan nan nan nan nan 5 6 6 5 10 13 13 24 31 28 28 21 13 4 6 6 3 nan nan nan nan 3 3 7 2 nan nan 3 6 6 20 20 26 43 83 83 113 101 81 81 60 46 46 35 27 13 13 1
19 15 7 8 8 0 nan nan nan nan nan nan nan nan nan nan 0 0 0 0 0 0 nan nan nan nan nan 0 1 1 0 nan nan nan nan nan nan nan nan 0 0 5 7 9 9 14 22 21 21 15 18 12 12 12 9 nan nan nan nan 4 4 11 3 nan nan 1 4 2 7 7 11 16 45 45 94 118 111 111 92 69 69 48 30 8 8 2
15 8 7 2 2 0 nan nan nan nan nan nan nan nan nan nan 1 1 4 8 8 1 0 1 1 0 nan nan nan nan nan nan nan nan nan nan nan nan nan nan nan nan 1 6 6 10 20 24 24 20 17 18 23 23 19 6 6 3 1 4 4 10 8 7 7 10 7 6 6 6 10 13 28 28 56 102 110 110 102 88 88 50 32 1 1 nan
26 16 7 0 0 nan nan nan nan nan nan nan nan nan nan nan nan nan 0 5 5 2 1 2 2 5 2 nan nan nan nan nan nan nan nan nan nan nan nan nan nan nan nan 4 4 15 29 36 36 38 29 25 23 23 12 5 5 3 4 6 6 13 22 24 24 11 15 17 12 12 21 21 28 28 45 84 113 113 87 71 71 46 23 nan nan nan
13 6 0 nan nan nan nan nan nan nan nan nan nan nan 0 1 4 4 8 5 5 4 4 6 6 12 15 7 2 2 nan nan nan nan nan nan nan nan nan nan nan 0 2 3 3 9 20 45 45 37 26 28 19 19 12 4 4 2 3 10 10 26 33 11 11 nan 5 14 17 17 23 26 25 25 40 89 114 114 58 43 43 37 9 nan nan nan
8 1 nan nan nan nan 2 5 4 4 3 7 9 9 4 4 9 9 13 6 6 1 0 2 2 6 16 12 6 6 1 0 0 0 0 2 nan nan 0 3 3 5 1 1 1 4 11 29 29 33 24 19 15 15 11 4 4 4 6 12 12 32 46 15 15 nan nan 1 9 9 12 14 22 22 36 67 49 49 17 7 7 4 0 nan nan nan
1 6 9 11 11 13 5 3 4 4 4 6 7 7 6 4 13 13 13 7 7 3 2 2 2 2 4 4 4 4 2 nan nan nan nan 3 21 21 3 0 0 3 2 2 2 10 18 23 23 14 7 12 18 18 16 10 10 12 12 17 17 29 39 22 22 2 1 1 2 2 nan nan 6 6 28 44 20 20 1 nan nan nan nan nan nan nan
28 19 7 5 5 3 8 4 1 1 1 4 7 7 14 28 35 35 35 32 32 32 22 15 15 6 0 nan nan nan 0 0 nan nan nan nan nan nan nan nan nan 0 0 1 1 0 0 13 13 4 4 13 21 21 24 19 19 20 20 25 25 23 23 19 19 7 4 5 0 0 nan nan 6 6 22 23 6 6 nan nan nan nan nan nan nan nan
2 1 1 0 0 0 1 1 4 4 7 13 11 11 10 7 5 5 19 28 28 38 49 45 45 26 13 3 1 1 1 nan nan nan nan nan nan nan nan nan nan nan nan nan nan nan nan nan nan 2 7 20 22 22 15 18 18 27 27 23 23 21 29 15 15 6 3 3 nan nan nan nan 6 6 17 6 nan nan nan nan nan nan nan nan nan nan
1 2 2 4 4 4 5 7 6 6 5 4 3 3 2 2 2 2 2 5 5 12 22 28 28 29 33 31 22 22 17 10 4 4 2 nan nan nan nan nan nan nan nan nan nan nan nan nan nan nan 7 21 15 15 14 20 20 31 33 27 27 34 44 19 19 6 0 1 nan nan nan 1 5 5 6 nan nan nan nan nan nan nan nan nan nan nan
4 7 7 9 9 9 12 9 7 7 5 4 2 2 2 9 34 34 8 3 3 5 3 6 6 7 12 22 30 30 41 38 15 15 9 0 nan nan nan nan nan 1 3 3 3 0 nan nan nan 1 8 21 18 18 11 13 13 30 54 65 65 68 48 23 23 1 nan nan nan nan nan 1 2 2 0 nan nan nan nan nan nan nan nan nan nan nan
7 7 13 10 10 11 9 10 7 7 5 4 4 4 2 2 4 4 5 4 4 4 3 2 2 2 4 5 9 9 17 17 14 14 13 5 0 0 nan 4 4 16 13 9 9 7 15 23 23 28 33 34 22 22 15 12 12 20 52 83 83 80 48 18 18 3 0 nan nan nan nan nan nan nan nan nan nan nan nan nan nan nan nan nan nan nan
13 10 11 9 9 9 6 7 7 7 7 8 8 8 5 3 3 3 5 7 7 8 7 6 6 7 4 2 4 4 8 3 4 4 6 3 6 6 24 40 40 34 20 17 17 18 25 28 28 17 26 56 31 31 17 9 9 14 44 68 68 49 35 15 15 5 2 nan nan nan nan nan nan nan nan 0 nan nan nan nan nan nan nan nan nan nan
CIN
nan nan nan nan nan nan nan nan nan nan nan nan nan nan nan nan nan nan nan nan nan nan nan nan nan nan nan nan nan nan nan nan nan nan nan nan -48 -48 -42 -40 -40 -41 nan nan nan nan nan nan nan nan nan nan -1 -1 -0 -0 -0 -0 -0 -0 -0 -0 -0 -0 -0 -0 -0 -1 -1 -1 -4 -10 -19 -19 -43 -52 -52 -52 -43 -32 -32 -19 -14 -14 -14 -10
nan nan nan nan nan nan nan nan nan nan nan nan nan nan nan nan nan nan nan nan nan nan nan nan nan nan nan nan nan nan nan nan nan nan -63 -57 -48 -48 -43 -39 -39 -38 nan nan nan nan nan nan nan nan nan nan nan nan -1 -0 -0 -0 -0 -0 -0 -0 -0 -0 -0 -0 -0 -1 -2 -2 -6 -17 -33 -33 nan nan nan nan -38 -32 -32 -15 -6 -10 -10 -8
nan nan nan nan nan nan nan nan nan nan nan nan nan nan nan nan nan nan nan nan nan nan nan nan nan nan nan nan nan nan nan nan -64 -64 -64 -60 -53 -53 -45 -41 -41 nan nan nan nan nan nan nan nan nan nan nan nan nan nan -1 -1 -1 -0 -0 -0 -0 -0 -0 -0 -0 -0 -2 -10 -10 -18 -32 nan nan nan nan -35 -35 -0 -0 -0 -0 -2 -7 -7 -4
nan nan nan nan nan nan nan nan nan nan nan nan nan nan nan nan nan nan nan nan nan nan nan nan nan nan nan nan nan nan nan nan -60 -60 -61 -65 -61 -61 -54 -46 -46 -43 nan nan nan nan nan nan nan nan nan nan nan nan nan -3 -3 -3 -2 -3 -3 -4 nan nan nan nan nan -19 -34 -34 -45 -54 nan nan nan nan -38 -38 nan -0 -0 -0 -1 -5 -5 -2
nan nan nan nan nan nan nan nan nan nan nan nan nan nan nan nan nan nan nan nan nan nan nan nan nan nan nan nan nan nan nan -59 -55 -55 -56 -59 -61 -61 -60 -53 -53 -46 -42 nan nan nan nan nan nan nan nan nan nan nan nan -2 -2 -2 -3 -6 -6 nan nan nan nan nan nan nan nan nan nan nan nan nan nan -59 -43 -43 -37 -0 -0 -0 -1 -4 -4 -2
nan nan nan nan nan nan nan nan nan nan nan nan nan nan nan nan nan nan nan nan nan nan nan nan nan nan nan nan nan nan nan -58 -55 -55 -55 -56 -56 -56 -58 -54 -54 -51 -48 -46 -46 nan nan nan nan nan nan nan -0 -0 -0 -0 -0 -1 -2 -5 -5 nan nan nan nan nan nan nan nan nan nan nan nan nan nan nan -49 -49 -39 -0 -0 -0 -0 -4 -4 -3
nan nan nan nan nan nan nan nan nan nan nan nan nan nan nan nan nan nan nan nan nan nan nan nan nan nan nan nan nan nan nan -74 -67 -67 -66 -63 -59 -59 -56 -55 -55 -56 -55 -53 -53 -47 -42 nan nan nan nan nan -1 -1 -0 -0 -0 -1 -2 -4 -4 nan nan nan nan nan nan nan nan nan nan nan nan nan nan nan nan nan -33 -0 -0 -0 -0 -8 -8 -4
nan nan nan nan nan nan nan nan nan nan nan nan nan nan nan nan nan nan nan nan nan nan nan nan nan nan nan nan nan nan nan nan nan nan nan nan nan nan -94 -67 -67 -55 -47 -42 -42 -36 -30 -25 -25 -23 -25 nan nan nan nan nan nan -4 -3 -4 -4 nan nan nan nan nan nan nan nan nan nan nan nan nan nan nan nan nan nan -13 -13 -1 -1 -0 -0 -0
nan nan nan nan nan nan nan nan nan nan nan nan nan nan nan nan nan nan nan nan nan nan nan nan nan nan nan nan nan nan nan nan nan nan nan nan nan nan nan -78 -78 -51 -36 -31 -31 -29 -26 -23 -23 -20 -20 nan nan nan nan nan nan nan nan -4 -4 nan nan nan nan nan nan nan nan nan nan nan nan nan nan nan nan nan nan -43 -43 -9 -2 -0 -0 -0
nan nan nan nan nan nan nan nan nan nan nan nan nan nan nan nan nan nan nan nan nan nan nan nan nan nan nan nan nan nan nan nan nan nan nan nan -73 -73 nan nan nan nan -49 -34 -34 -27 -26 -25 -25 -23 -23 nan nan nan nan nan nan nan nan nan nan nan nan nan nan nan nan nan nan nan nan nan nan nan nan nan nan nan nan nan nan -25 -12 -1 -1 -0
nan nan nan nan nan nan nan nan nan nan nan nan nan nan nan nan nan nan nan nan nan nan nan nan nan nan nan nan nan nan nan nan nan nan nan nan nan nan nan nan nan nan nan -52 -52 -36 -33 -30 -30 -28 -29 nan nan nan nan nan nan nan nan nan nan nan nan nan nan nan nan nan nan nan nan nan nan nan nan nan nan nan nan nan nan nan -42 -12 -12 -0
nan nan nan nan nan nan nan nan nan nan nan nan nan nan nan nan nan nan nan nan nan nan nan nan nan nan nan nan nan nan nan nan nan nan nan nan nan nan nan nan nan nan nan nan nan nan -43 -36 -36 -34 -33 -36 nan nan nan nan nan nan nan nan nan -3 -3 nan nan nan nan nan nan nan nan nan nan nan nan nan nan nan nan nan nan nan nan -46 -46 -7
nan nan nan nan nan nan nan nan nan nan nan nan nan nan nan nan nan nan nan nan nan nan nan nan nan nan nan nan nan nan nan nan nan nan nan nan nan nan nan nan nan nan nan nan nan nan nan -42 -42 -37 -33 -34 -40 -40 nan nan nan nan nan nan nan -2 -3 nan nan nan nan nan nan nan nan nan nan nan nan nan nan nan nan nan nan nan nan nan nan -23
nan nan nan nan nan nan nan nan nan nan nan nan nan nan nan nan nan nan nan nan nan nan nan nan nan nan nan nan nan nan nan nan nan nan nan nan nan nan nan nan nan nan nan nan nan nan nan -60 -60 -55 -34 -32 -36 -36 nan nan nan nan nan -4 -4 -2 -2 nan nan nan nan nan nan nan nan nan nan nan nan nan nan nan nan nan nan nan nan nan nan nan
nan nan nan nan nan nan nan nan nan nan nan nan nan nan nan nan nan nan nan nan nan nan nan nan nan nan nan nan nan nan nan nan nan nan nan nan nan nan nan nan nan nan nan nan nan nan nan nan nan nan nan nan -44 -44 -40 -34 -34 nan nan nan nan -3 -2 nan nan nan nan nan nan nan nan nan nan nan nan nan nan nan nan nan nan nan nan nan nan nan
nan nan nan nan nan nan nan nan nan nan nan nan nan nan nan nan nan nan nan nan nan nan nan nan nan nan nan nan nan nan nan nan nan nan nan nan nan nan nan nan nan nan nan nan nan nan nan nan nan nan nan -47 -41 -41 -39 -28 -28 -23 nan nan nan nan -3 -4 -4 nan nan nan nan nan nan nan nan nan nan nan nan nan nan nan nan nan nan nan nan nan
nan nan nan nan nan nan nan nan nan nan nan nan nan nan nan nan nan nan nan nan nan nan nan nan nan nan nan nan nan nan nan nan nan nan nan nan nan nan nan nan nan nan nan nan nan nan nan nan nan nan nan -28 -28 -28 -27 -23 -23 -21 -22 nan nan nan -4 -4 -4 nan nan nan nan nan nan nan nan nan nan nan nan nan nan nan nan nan nan nan nan nan
nan nan nan nan nan nan nan nan nan nan nan nan nan nan nan nan nan nan nan nan nan nan nan nan nan nan nan nan nan nan nan nan nan nan nan nan nan nan nan nan nan nan nan nan nan nan nan nan nan nan nan nan -24 -24 -22 -19 -19 -18 -20 -23 -23 -23 nan nan nan nan nan nan nan nan nan nan nan nan nan nan nan nan nan nan nan nan nan nan nan nan
nan nan nan nan nan nan nan nan nan nan nan nan nan nan nan nan nan nan nan nan nan nan nan nan nan nan nan nan nan nan nan nan nan nan nan nan nan nan nan nan nan nan nan nan nan nan nan nan nan nan nan nan nan nan -19 -17 -17 -16 -18 -23 -23 -25 -25 nan nan nan -29 -39 nan nan nan nan nan nan nan nan nan nan nan nan nan nan nan nan nan nan
-7 -8 nan nan nan nan nan nan nan nan nan nan nan nan nan nan nan nan nan nan nan nan nan nan nan nan nan nan nan nan nan nan nan nan nan nan nan nan nan nan nan nan nan nan nan nan nan nan nan nan nan nan nan nan nan -15 -15 -15 -16 -20 -20 -25 -25 -21 -21 -14 -21 -28 nan nan nan nan nan nan nan nan nan nan nan nan nan nan nan nan nan nan
-4 -5 -7 nan nan -13 nan nan nan nan nan nan nan nan nan nan nan nan nan nan nan nan nan nan nan nan nan nan nan nan nan nan nan nan -15 -14 nan nan nan nan nan nan nan nan nan nan nan nan nan nan nan nan nan nan nan -15 -15 -13 -15 -18 -18 -21 -21 -18 -18 -13 -9 -10 nan nan nan nan nan nan nan nan nan nan nan nan nan nan nan nan nan nan
-3 -2 -3 -7 -7 -4 -3 -10 -27 -27 -29 -49 nan nan -25 nan nan nan nan nan nan nan -22 -15 -15 -24 -21 -18 -13 -13 nan -16 -2 -2 -3 -4 -11 -11 nan nan nan nan nan nan nan nan nan nan nan nan nan nan nan nan nan nan nan -14 -14 -16 -16 -15 -16 -14 -14 -11 -8 -8 -13 -13 nan nan nan nan nan nan nan nan nan nan nan nan nan nan nan nan
-7 -4 -5 -5 -5 -4 -3 -4 -6 -6 -7 -18 -9 -9 -13 -11 -8 -8 -8 -4 -4 -4 -3 -3 -3 -8 -17 -22 -20 -20 nan nan -18 -18 -7 -3 -2 -2 nan nan nan nan -24 nan nan nan nan nan nan nan nan nan nan nan nan nan nan -15 -15 -14 -14 -13 -12 -11 -11 -9 -7 -5 -8 -8 -15 nan nan nan nan nan nan nan nan nan nan nan nan nan nan nan
-9 -10 -9 -11 -11 -14 -15 -17 -19 -19 -17 -16 -15 -15 -47 -33 -12 -12 -4 -7 -7 -6 -5 -13 -13 -18 -27 nan nan nan nan nan nan nan -11 -2 -5 -5 nan -22 -22 -10 -15 -40 -40 nan nan nan nan nan nan -26 nan nan nan nan nan -15 -15 -15 -15 -13 -11 -10 -10 -10 -5 -5 -6 -6 -9 -15 nan nan nan nan nan nan nan nan nan nan nan nan nan nan
-14 -14 -16 nan nan -15 -18 -23 -15 -15 -19 -25 -30 -30 nan -46 -14 -14 -18 -19 -19 -16 -13 -12 -12 -10 -13 -15 nan nan nan nan nan nan nan -5 -8 -8 -15 -16 -16 -6 -6 -31 -31 -66 -58 -60 -60 -88 nan -55 -25 -25 -22 -19 -19 -15 -14 -14 -14 -14 -13 -13 -13 -12 -10 -5 -5 -5 -6 -9 -17 -17 nan nan nan nan nan nan nan nan nan nan nan nan
-7 -9 -15 -6 -6 -0 -0 -0 -0 -0 -0 -12 -19 -19 -25 -17 -18 -18 -15 -14 -14 -15 -14 -7 -7 -7 -13 -17 nan nan nan nan nan nan nan nan -12 -12 -23 -21 -21 -13 -9 -21 -21 -56 -48 -41 -41 -74 nan -74 -26 -26 -25 -21 -21 -16 -13 -13 -13 -13 -13 -14 -14 -15 -14 -7 -5 -5 -4 -6 -9 -9 -18 nan nan nan nan nan nan nan nan nan nan nan
-0 -0 -0 -0 -0 -0 -0 -0 -0 -0 -0 -0 -10 -10 -20 -17 -13 -13 -5 -7 -7 -11 -7 -4 -4 -7 -13 nan nan nan nan nan nan nan nan nan nan nan nan nan nan -35 -23 -20 -20 -38 -28 -22 -22 -45 -68 -82 -50 -50 -24 -22 -22 -17 -14 -13 -13 -13 -14 -14 -14 -16 -17 -13 -7 -7 -5 -5 -6 -6 -7 -7 nan nan nan nan nan nan nan nan nan nan
-0 -0 -0 -0 -0 -0 -0 -0 -0 -0 -0 -0 -0 -0 -0 -14 -6 -6 -5 -9 -9 -10 -6 -4 -4 -8 -12 -19 -26 -26 nan nan nan nan nan nan nan nan nan nan nan nan nan -26 -26 -34 -20 -22 -22 -33 -51 -72 -67 -67 -34 -20 -20 -17 -14 -13 -13 -13 -14 -15 -15 -16 -17 -16 -9 -9 -8 -7 -6 -6 -6 -6 -6 -6 -10 nan nan nan nan nan nan nan
-0 -0 -0 -0 -0 -0 -0 -0 -0 -0 -0 -0 -0 -0 -0 -16 -5 -5 -6 -11 -11 -16 -12 -10 -10 -13 -15 -19 -31 -31 nan nan nan nan nan nan -15 -15 -24 nan nan nan nan nan nan -50 -53 -51 -51 -63 -65 -55 -58 -58 -45 -22 -22 -18 -15 -12 -12 -12 -14 -14 -14 -15 -16 -16 -13 -13 -11 -10 -9 -9 -14 -17 -16 -16 -7 nan nan nan nan nan nan nan
-8 -0 -0 -0 -0 -0 -0 -0 -0 -0 -0 -0 -0 -0 -0 -8 -3 -3 -4 -15 -15 -25 -17 -13 -13 -10 -13 -18 -21 -21 nan nan nan nan nan -21 -13 -13 -29 nan nan nan nan -34 -34 nan nan nan nan nan nan -56 -78 -78 -103 -70 -70 -55 -31 -10 -10 -10 -12 -12 -12 -14 -14 -16 -15 -15 -12 -10 -11 -11 -16 -19 -21 -21 nan -10 -10 nan nan nan nan nan
nan -32 -32 -12 -12 -11 -22 nan -1 -1 -0 -0 -0 -0 -0 -3 -2 -2 -9 -31 -31 -25 -10 -13 -13 -11 -11 -11 -8 -8 -16 nan nan nan nan -27 -16 -16 -47 nan nan nan nan nan nan -20 -16 -37 -37 -67 nan -84 -108 -108 nan -137 -137 -117 -87 -39 -39 -19 -9 -14 -14 -17 -17 -19 -19 -19 -16 -13 -13 -13 -16 -19 -21 -21 -19 -7 -7 -9 -22 nan nan nan
nan -19 -13 -12 -12 -27 nan nan nan nan nan nan nan nan -19 nan nan nan nan nan nan nan nan -22 -22 -14 -11 -6 -4 -4 -6 nan -20 -20 -47 -36 -29 -29 nan nan nan nan nan nan nan nan -14 -12 -12 -39 nan nan nan nan -71 -54 -54 nan -54 -39 -39 -37 -16 -12 -12 -20 -26 -19 -18 -18 -17 -16 -13 -13 nan -4 -3 -3 -3 -4 -4 -4 -6 -19 -19 nan
nan nan nan nan nan nan nan nan nan nan nan nan nan nan nan nan nan nan nan nan nan nan nan -27 -27 -14 -11 -10 -10 -10 -12 -21 -8 -8 -22 -41 -26 -26 -42 -46 -46 nan nan -44 -44 -28 -13 -7 -7 -11 -41 nan -58 -58 -53 -48 -48 -57 -58 -32 -32 -33 -25 -22 -22 -30 -22 -20 -17 -17 -12 -13 nan nan -3 -2 -1 -1 -1 -2 -2 -3 -4 -14 -14 -25
nan nan nan nan nan nan nan nan nan nan nan nan nan nan nan nan nan nan nan nan nan nan nan nan nan -18 -11 -10 -14 -14 nan nan -20 -20 -20 -45 -32 -32 -31 -21 -21 -19 -13 -8 -8 -6 -4 -5 -5 -9 -23 nan -55 -55 -47 -52 -52 -73 -83 -50 -50 -43 -39 -39 -39 -32 -24 -24 -25 -25 -15 -13 -4 -4 -3 -1 -0 -0 -0 -1 -1 -2 -5 -9 -9 -22
nan nan nan nan nan nan nan nan nan nan nan nan nan nan nan nan nan nan nan nan nan nan nan nan nan -22 -15 -11 -12 -12 -21 nan -29 -29 -17 -40 -19 -19 -7 -5 -5 -7 -4 -4 -4 -10 -15 -17 -17 -12 -11 -18 -28 -28 -42 -69 -69 -91 -95 -64 -64 -49 -46 -38 -38 -18 -15 -13 -9 -9 -11 -11 -7 -7 -4 -2 -1 -1 -1 -1 -1 -1 -3 -9 -9 -25
-19 -19 nan nan nan nan nan nan nan nan nan nan nan nan nan nan nan nan -43 -13 -13 -21 -7 -7 -7 nan nan nan -17 -17 -19 -28 -14 -14 -11 -25 -15 -15 -5 -4 -4 -8 -7 -7 -7 -9 -12 -16 -16 -14 -12 -10 -15 -15 -35 nan nan nan -84 -62 -62 -46 -44 -38 -38 -18 -12 -6 -4 -4 -7 -8 -6 -6 -5 -4 -4 -4 -3 -2 -2 -2 -3 -8 -8 -30
-21 nan nan nan nan nan nan nan nan nan nan -7 -14 -14 nan nan -10 -10 -9 -16 -16 -10 -3 -2 -2 -3 -3 -16 -15 -15 -15 -19 -14 -14 -9 -24 -20 -20 -13 -20 -20 -18 -18 -10 -10 -13 -14 -13 -13 -10 -10 -9 -12 -12 -20 -45 -45 -42 -35 nan nan -52 -57 -54 -54 -25 -6 -3 -3 -3 -4 -5 -4 -4 -4 -7 -6 -6 -4 -4 -4 -4 -5 -21 -21 nan
nan nan -21 -25 -25 -28 -27 nan nan nan nan nan nan nan nan nan nan nan nan nan nan nan nan -37 -37 -38 -23 -11 -18 -18 -27 -19 -23 -23 -19 -21 -22 -22 -14 -22 -22 -35 -25 -20 -20 -13 -8 -5 -5 -4 -9 -18 -15 -15 -18 -24 -24 -21 -25 nan nan nan nan -56 -56 -29 -6 -2 -2 -2 -3 -3 -3 -3 -3 -5 -4 -4 -4 -3 -3 -3 -6 -30 -30 nan
-14 -5 -6 -9 -9 -31 nan nan nan nan nan nan nan nan nan nan nan nan nan nan nan nan nan nan nan nan nan nan -42 -42 -39 nan nan nan nan nan nan nan -23 -19 -19 -25 -27 -27 -27 -15 -4 -3 -3 -5 -7 -14 -15 -15 -20 nan nan nan nan -26 -26 -21 -32 nan nan -28 -9 -3 -2 -2 -3 -4 -3 -3 -3 -4 -3 -3 -3 -4 -4 -4 -4 -6 -6 -25
-5 -8 -16 -14 -14 -34 nan nan nan nan nan nan nan nan nan nan -37 -37 -49 -55 -55 -57 nan nan nan nan nan -57 -50 -50 -55 nan nan nan nan nan nan nan nan -24 -24 -19 -24 -26 -26 -17 -7 -6 -6 -8 -7 -8 -9 -9 -14 nan nan nan nan -14 -14 -12 -36 nan nan -39 -16 -5 -3 -3 -3 -4 -4 -4 -2 -3 -3 -3 -4 -5 -5 -6 -7 -9 -9 -33
-5 -10 -12 -27 -27 -31 nan nan nan nan nan nan nan nan nan nan -26 -26 -26 -18 -18 -29 -35 -37 -37 -41 nan nan nan nan nan nan nan nan nan nan nan nan nan nan nan nan -23 -18 -18 -14 -7 -5 -5 -6 -8 -7 -6 -6 -8 -16 -16 -17 -14 -10 -10 -10 -23 -34 -34 -30 -21 -8 -5 -5 -3 -3 -3 -3 -3 -2 -3 -3 -6 -6 -6 -10 -12 -15 -15 nan
-0 -4 -11 -23 -23 nan nan nan nan nan nan nan nan nan nan nan nan nan -22 -14 -14 -21 -25 -22 -22 -15 -15 nan nan nan nan nan nan nan nan nan nan nan nan nan nan nan nan -11 -11 -7 -5 -3 -3 -3 -5 -6 -5 -5 -10 -17 -17 -16 -11 -10 -10 -9 -8 -15 -15 -33 -21 -8 -6 -6 -2 -2 -2 -2 -3 -3 -3 -3 -10 -11 -11 -13 -15 nan nan nan
-4 -12 -22 nan nan nan nan nan nan nan nan nan nan nan -29 -28 -20 -20 -13 -14 -14 -16 -15 -11 -11 -6 -4 -7 -14 -14 nan nan nan nan nan nan nan nan nan nan nan -35 -20 -4 -4 -3 -4 -2 -2 -2 -6 -6 -7 -7 -10 -17 -17 -15 -15 -10 -10 -5 -4 -23 -23 nan -40 -12 -4 -4 -2 -2 -4 -4 -4 -2 -3 -3 -9 -10 -10 -15 -20 nan nan nan
-10 -17 nan nan nan nan -16 -11 -13 -13 -17 -15 -15 -15 -24 -26 -16 -16 -9 -13 -13 -13 -12 -11 -11 -7 -2 -4 -9 -9 -18 -25 -29 -29 -27 -26 nan nan -37 -31 -31 -25 -25 -21 -21 -13 -9 -3 -3 -5 -10 -11 -10 -10 -10 -14 -14 -12 -14 -12 -12 -4 -1 -18 -18 nan nan -34 -9 -9 -4 -3 -3 -3 -2 -2 -5 -5 -13 -19 -19 -28 -32 nan nan nan
-29 -15 -10 -8 -8 -5 -8 -11 -12 -12 -15 -13 -15 -15 -18 -24 -13 -13 -12 -14 -14 -16 -18 -17 -17 -11 -2 -5 -7 -7 -13 nan nan nan nan -28 -18 -18 -28 -30 -30 -25 -23 -20 -20 -13 -8 -6 -6 -11 -16 -12 -5 -5 -6 -8 -8 -8 -9 -10 -10 -7 -5 -15 -15 -38 -36 -28 -19 -19 nan nan -3 -3 -1 -1 -7 -7 -20 nan nan nan nan nan nan nan
-3 -3 -6 -7 -7 -9 -7 -13 -15 -15 -15 -13 -13 -13 -11 -8 -6 -6 -3 -2 -2 -3 -9 -11 -11 -14 -16 nan nan nan -13 -18 nan nan nan nan nan nan nan nan nan -40 -33 -26 -26 -23 -16 -7 -7 -10 -11 -7 -4 -4 -4 -6 -6 -5 -7 -8 -8 -9 -11 -16 -16 -23 -22 -15 -18 -18 nan nan -1 -1 -0 -1 -11 -11 nan nan nan nan nan nan nan nan
-10 -11 -13 -14 -14 -13 -13 -14 -12 -12 -9 -7 -9 -9 -11 -15 -16 -16 -8 -6 -6 -3 -2 -2 -2 -2 -8 -14 -18 -18 -21 nan nan nan nan nan nan nan nan nan nan nan nan nan nan nan nan nan nan -11 -6 -2 -3 -3 -7 -7 -7 -4 -5 -10 -10 -10 -7 -15 -15 -21 -21 -14 nan nan nan nan -0 -0 -0 -4 nan nan nan nan nan nan nan nan nan nan
-11 -10 -10 -10 -10 -9 -9 -9 -10 -10 -10 -12 -15 -15 -18 -22 -18 -18 -17 -15 -15 -8 -2 -2 -2 -1 -1 -2 -5 -5 -8 -13 -22 -22 -28 nan nan nan nan nan nan nan nan nan nan nan nan nan nan nan -6 -1 -3 -3 -6 -7 -7 -4 -4 -9 -9 -7 -4 -13 -13 -23 -28 -15 nan nan nan -2 -0 -0 -0 nan nan nan nan nan nan nan nan nan nan nan
-8 -7 -7 -6 -6 -6 -6 -8 -10 -10 -11 -12 -14 -14 -18 -10 -0 -0 -9 -15 -15 -11 -10 -5 -5 -3 -1 -2 -3 -3 -2 -2 -10 -10 -15 -42 nan nan nan nan nan -51 -44 -35 -35 -26 nan nan nan -14 -8 -2 -2 -2 -6 -7 -7 -4 -3 -3 -3 -3 -4 -11 -11 -29 nan nan nan nan nan -1 -1 -1 -1 nan nan nan nan nan nan nan nan nan nan nan
-6 -6 -4 -5 -5 -5 -6 -7 -8 -8 -9 -11 -11 -11 -16 -18 -15 -15 -13 -12 -12 -10 -8 -8 -8 -6 -4 -6 -6 -6 -5 -6 -8 -8 -10 -19 -33 -33 nan -34 -34 -23 -18 -16 -16 -11 -1 -2 -2 -5 -5 -3 -2 -2 -3 -5 -5 -5 -3 -2 -2 -2 -3 -12 -12 -32 -33 nan nan nan nan nan nan nan nan nan nan nan nan nan nan nan nan nan nan nan
-2 -4 -5 -6 -6 -5 -7 -8 -7 -7 -7 -7 -7 -7 -11 -14 -14 -14 -12 -9 -9 -7 -7 -7 -7 -5 -5 -9 -7 -7 -4 -8 -10 -10 -12 -18 -20 -20 -13 -9 -9 -8 -10 -11 -11 -6 -3 -3 -3 -6 -4 -2 -2 -2 -1 -3 -3 -3 -2 -2 -2 -6 -4 -12 -12 -24 -19 nan nan nan nan nan nan nan nan -0 nan nan nan nan nan nan nan nan nan nan
Wind_Speed
2 2 2 1 2 2 3 3 3 4 5 5 5 5 5 5 5 5 6 6 5 5 5 5 5 5 6 8 9 10 11 12 12 12 12 12 12 12 12 11 10 9 8 8 8 8 8 9 9 10 11 12 13 14 15 16 16 16 17 17 17 17 17 17 17 18 18 18 18 18 18 18 17 17 16 16 16 16 17 18 18 19 18 18 18 18
2 2 2 2 2 2 3 3 3 3 4 4 4 4 3 3 4 4 4 4 4 5 5 5 5 6 6 7 9 10 11 12 12 12 12 11 11 11 11 10 10 9 8 8 8 8 8 9 9 10 11 11 12 13 14 15 16 16 17 17 17 17 16 17 17 17 18 18 19 19 19 18 17 16 16 16 16 17 18 19 19 19 19 18 18 18
2 2 2 2 2 3 3 3 3 2 3 3 4 4 4 4 4 4 4 5 5 5 5 5 6 6 7 8 9 10 11 11 11 11 11 11 11 11 10 10 10 9 9 8 8 8 9 9 10 10 11 11 12 13 14 15 16 16 17 17 16 16 16 16 16 16 17 17 18 19 19 18 17 17 17 18 18 19 19 20 20 20 19 19 19 20
3 3 3 2 2 3 3 3 3 3 3 4 4 5 5 5 5 5 5 5 5 5 6 6 6 7 7 7 8 9 10 11 11 11 12 12 12 12 12 11 11 10 10 10 10 9 9 9 10 11 11 12 13 14 14 15 16 16 17 17 17 16 16 16 16 16 16 16 17 18 18 18 18 18 19 20 20 20 21 21 21 21 20 20 20 21
3 3 3 2 2 3 3 3 3 3 4 4 5 5 5 5 5 5 5 5 5 5 6 6 6 6 6 6 7 8 10 11 11 12 13 13 14 14 14 13 13 12 12 11 11 10 9 9 10 11 12 13 14 14 15 15 16 17 17 17 17 17 17 17 16 16 16 16 17 18 18 17 18 18 20 21 21 22 22 22 22 22 21 21 21 22
3 2 2 2 2 3 3 3 3 3 4 4 4 5 5 4 4 4 5 5 5 5 5 5 5 5 5 5 6 8 10 11 12 12 13 14 15 16 16 15 15 14 14 13 12 10 9 9 9 10 12 13 14 15 16 16 17 17 17 18 18 17 17 18 18 18 18 17 17 17 17 18 18 19 20 21 21 22 23 23 23 23 22 22 22 22
3 2 2 2 3 3 3 3 3 3 3 4 4 4 4 4 4 4 4 4 4 4 4 4 5 5 5 6 7 8 9 10 11 12 13 14 14 15 15 15 15 15 14 13 12 10 9 9 9 10 12 13 15 16 17 17 17 17 18 18 18 18 18 18 18 19 19 19 18 18 17 18 19 20 21 21 21 22 23 23 24 24 23 22 23 23
4 3 3 3 3 3 3 3 3 3 3 4 4 4 4 4 4 4 4 4 4 4 5 5 5 5 5 6 7 7 7 8 8 9 10 11 11 12 12 12 13 13 13 12 11 10 9 9 10 11 12 13 14 16 17 17 17 18 18 18 19 19 19 19 19 19 20 20 20 19 18 18 19 20 21 21 21 21 21 23 24 24 23 23 23 24
4 4 3 3 3 3 4 4 3 3 3 4 4 4 4 4 4 4 4 5 4 4 4 5 5 5 5 5 5 5 6 6 6 6 7 7 7 7 8 9 9 10 10 10 10 10 10 10 11 11 12 13 14 15 16 17 17 18 18 18 19 19 19 19 19 20 20 21 21 21 20 20 20 20 20 20 20 20 20 22 23 24 24 24 24 25
4 4 4 3 3 3 4 4 4 3 3 3 3 3 3 4 4 5 5 5 4 3 3 4 4 4 4 4 3 4 5 6 7 8 8 7 7 7 7 7 7 8 9 9 10 10 11 11 12 12 13 13 14 15 16 17 17 18 18 19 19 20 20 20 20 20 20 21 21 22 22 22 21 20 20 20 20 20 20 21 23 24 24 25 25 26
4 4 4 4 3 3 3 4 3 3 2 2 3 3 3 3 4 4 5 5 4 3 3 3 3 3 4 4 4 4 5 6 7 8 9 9 10 10 9 9 8 8 9 10 10 11 11 12 13 13 13 14 14 15 16 16 17 17 18 19 19 20 20 20 20 21 21 21 21 22 23 23 23 22 21 21 21 21 21 22 23 23 24 25 25 26
4 3 3 3 3 3 2 3 2 2 2 2 3 3 3 3 3 3 4 5 4 4 4 3 3 3 4 4 4 4 4 5 5 5 6 7 7 8 8 7 8 8 9 9 10 10 11 12 13 13 13 13 14 15 15 15 16 17 18 19 19 20 20 20 21 21 21 21 22 22 23 23 24 23 23 22 22 23 23 23 24 24 24 24 25 26
3 3 3 3 3 3 3 2 2 2 2 2 3 4 4 3 2 2 4 4 4 4 4 4 4 3 3 3 3 4 4 4 4 4 5 5 5 5 5 5 5 5 6 6 7 8 10 11 12 12 12 12 13 14 14 15 16 17 18 19 19 20 20 20 20 21 21 22 22 22 23 23 24 24 24 24 24 24 25 25 25 24 24 24 25 26
3 3 3 3 3 3 3 3 3 3 3 3 3 3 4 3 3 3 4 4 4 4 4 4 4 4 3 3 3 3 3 4 4 4 4 4 4 4 4 4 5 4 4 4 5 5 7 8 8 9 10 11 12 13 13 14 16 17 18 19 19 20 20 20 20 20 21 21 22 22 23 23 24 24 25 25 25 25 25 25 25 24 24 24 24 25
4 3 4 4 4 3 3 3 3 3 3 3 3 3 4 4 3 3 4 4 4 4 4 4 4 4 3 3 3 2 3 3 4 4 4 4 4 4 4 5 5 4 4 4 5 5 6 6 5 6 7 9 10 11 12 14 15 17 18 19 19 20 20 20 20 20 20 20 21 22 23 23 24 24 25 25 25 25 24 24 24 24 23 23 23 23
3 4 4 4 4 4 3 3 4 4 4 4 4 4 4 4 3 3 4 4 4 4 4 4 4 4 3 3 2 2 2 3 3 4 4 4 4 3 4 5 5 5 5 5 5 5 5 5 5 5 6 8 11 12 14 14 16 17 18 19 19 19 19 19 19 19 19 20 20 21 21 22 23 24 24 25 24 24 23 23 23 23 23 23 23 22
4 4 4 5 5 5 4 4 4 4 4 4 3 3 4 4 3 3 3 3 3 3 3 3 4 4 3 3 2 2 3 3 3 4 5 5 4 4 4 5 5 6 6 6 6 6 6 6 5 5 6 8 11 13 14 15 16 17 18 19 19 19 19 19 19 19 19 19 20 20 20 21 21 22 23 23 23 23 22 22 22 23 22 22 22 22
4 4 4 5 5 5 4 4 4 4 4 4 4 3 3 3 3 3 3 3 3 3 3 3 3 3 4 3 3 2 4 4 4 5 5 6 5 4 3 4 5 6 6 6 6 5 6 6 7 7 9 12 13 14 15 16 17 18 19 19 20 20 20 19 19 19 20 20 20 20 20 20 20 21 21 21 21 21 21 21 22 22 22 22 22 22
5 5 5 5 5 4 4 4 3 3 3 3 3 3 3 3 3 3 4 3 3 3 4 4 3 3 4 5 4 3 4 4 5 5 6 7 6 4 3 4 5 6 6 7 6 6 6 7 9 12 15 17 17 17 17 17 18 18 19 20 20 20 20 19 19 20 20 20 20 20 20 20 20 20 20 21 21 21 21 21 21 22 22 22 22 23
7 6 5 5 5 5 5 4 4 4 4 4 4 4 4 4 4 4 4 3 3 4 4 4 5 4 4 5 5 4 4 4 4 5 5 7 7 5 4 5 6 7 7 7 6 6 7 8 9 12 15 17 19 20 19 19 18 18 19 20 20 20 20 20 20 20 20 20 21 21 21 21 21 21 21 21 21 21 21 21 21 22 22 23 23 23
7 7 6 5 5 5 5 4 4 4 5 5 4 4 4 4 4 4 4 4 4 4 4 4 5 5 4 5 5 5 4 4 5 5 4 6 7 6 4 5 6 7 9 8 7 7 7 8 8 9 12 17 19 21 21 20 19 19 19 19 20 20 20 20 20 20 20 20 21 21 21 21 21 21 22 22 22 22 22 22 22 22 23 23 24 24
7 7 7 7 7 7 7 7 7 7 7 6 5 5 4 4 5 5 5 4 4 5 6 6 6 5 4 6 6 6 4 4 5 6 6 8 9 8 5 5 6 8 10 8 7 7 7 8 8 9 12 17 20 22 22 21 20 19 18 18 19 19 20 20 20 19 20 20 21 21 21 21 21 21 22 22 22 23 23 23 23 23 24 24 25 25
9 9 9 8 8 8 8 8 8 7 7 6 5 5 4 4 4 5 4 4 4 5 6 5 5 5 5 6 7 7 6 5 6 6 6 9 10 9 5 6 7 8 9 7 7 7 7 7 8 9 12 17 20 21 22 22 21 20 18 18 18 18 19 19 19 19 19 19 20 20 21 21 21 21 21 21 22 22 23 23 24 24 25 25 25 25
9 9 9 8 8 8 8 7 7 6 5 5 5 5 4 4 5 5 5 5 6 6 6 6 7 8 8 8 8 8 7 5 5 5 6 8 9 8 6 6 8 10 10 7 7 7 7 7 7 8 9 14 18 20 21 21 21 20 19 18 18 18 18 19 19 19 19 19 19 19 20 20 20 20 20 20 21 22 23 23 24 25 25 25 25 25
9 9 9 9 9 10 10 10 10 9 8 7 6 6 6 6 7 7 7 7 7 7 7 8 9 10 8 8 8 7 6 5 5 5 5 6 7 8 6 6 8 10 10 7 6 6 7 7 7 7 7 11 15 18 20 21 21 20 19 19 18 18 18 19 19 19 19 19 18 18 18 18 18 18 18 19 19 20 22 23 23 24 25 25 24 24
13 12 12 14 15 18 19 19 19 19 18 14 11 9 7 7 7 7 8 7 7 7 8 9 10 9 8 7 7 7 5 4 5 5 5 5 6 7 6 6 7 9 9 7 6 5 6 7 6 6 6 9 12 15 18 20 21 21 20 20 19 19 19 19 19 19 19 19 18 18 17 17 17 17 17 17 18 19 20 21 23 24 24 24 24 24
19 20 21 21 22 23 24 25 26 27 27 24 20 16 12 9 8 8 9 7 6 7 9 10 9 9 7 7 7 6 4 4 4 4 4 5 6 7 6 5 5 7 8 7 6 6 8 8 7 6 6 7 8 11 16 18 20 21 21 20 20 20 19 19 19 19 19 18 18 17 17 17 17 17 17 18 18 19 19 20 21 22 23 22 21 20
20 21 21 22 23 25 27 28 29 29 29 28 28 25 19 12 10 10 9 6 6 7 9 9 8 7 6 6 5 5 4 4 4 4 4 4 6 7 6 5 5 6 7 6 6 7 9 8 7 6 6 6 7 9 13 16 17 19 19 19 19 19 19 19 19 18 18 18 17 17 17 17 18 18 18 19 19 19 19 20 20 20 20 18 15 13
17 19 20 21 24 26 28 28 28 27 27 28 28 25 20 12 10 10 8 5 5 6 8 7 6 6 5 5 5 5 5 5 4 4 4 5 6 6 5 4 5 5 5 5 6 6 7 7 6 6 6 7 7 7 8 11 12 14 15 17 18 18 18 18 18 18 17 17 17 17 17 18 18 18 19 19 20 20 20 20 19 18 16 14 12 11
12 13 15 18 20 22 23 21 20 20 22 23 23 21 16 11 9 8 6 4 4 5 7 6 6 6 6 6 6 6 6 5 5 4 4 5 6 5 3 4 4 4 4 4 5 5 6 5 5 5 6 6 6 5 5 6 7 8 9 12 13 14 16 16 16 17 17 17 17 17 18 18 19 19 20 20 20 21 21 20 19 15 11 10 10 9
8 10 11 12 13 13 13 11 11 11 12 14 15 14 12 9 8 7 6 5 5 6 7 8 8 8 7 7 7 7 5 4 4 4 4 4 4 4 2 3 4 4 3 3 4 5 6 4 4 4 5 5 4 4 5 5 5 5 5 7 8 9 12 13 14 14 15 16 17 18 18 19 19 20 20 21 21 21 21 21 19 15 10 9 9 9
8 9 9 9 8 8 8 7 7 7 7 8 9 9 9 8 8 7 6 6 6 7 8 9 9 9 8 8 8 7 6 5 5 5 4 4 4 3 2 3 4 4 3 3 4 6 6 5 4 4 4 5 4 4 5 6 6 6 6 6 6 7 10 11 11 12 12 14 15 17 18 19 19 20 21 22 22 22 23 22 20 16 11 9 9 9
10 10 9 9 8 8 8 8 8 7 7 7 7 7 8 8 8 8 8 7 7 8 8 9 9 9 9 9 9 9 7 6 7 7 7 5 4 4 3 4 5 5 5 5 5 6 7 6 5 4 4 4 4 4 5 6 6 6 6 6 6 6 8 8 8 9 9 11 12 14 16 17 18 20 21 22 23 23 24 24 22 19 14 10 9 8
11 10 10 9 8 8 8 9 9 9 8 8 8 8 8 8 9 9 9 9 8 8 9 9 9 9 9 9 9 8 8 8 8 9 9 6 5 4 4 4 5 6 5 5 5 5 5 5 5 4 4 4 4 4 5 6 6 6 6 6 6 6 7 6 6 7 8 8 9 10 12 13 15 17 18 20 21 23 24 24 24 22 19 13 9 8
10 10 9 8 7 8 8 9 9 9 9 9 9 9 9 8 8 8 8 8 8 8 8 8 9 9 9 9 9 9 9 7 8 9 9 7 5 4 4 5 5 5 5 4 4 3 4 4 5 5 5 5 5 5 5 6 6 6 6 7 7 6 6 6 6 6 7 7 8 8 9 9 10 12 13 16 18 20 23 24 24 24 23 18 14 10
9 8 7 7 7 8 10 9 9 8 8 8 7 7 7 7 7 6 6 7 7 8 8 8 8 8 8 9 9 9 9 8 8 9 9 7 5 4 4 4 4 4 4 4 4 4 4 5 6 7 8 7 7 6 6 5 5 5 5 6 6 6 6 6 6 6 6 7 8 8 9 9 9 10 10 14 16 19 21 23 24 25 25 22 19 15
6 6 6 6 7 8 9 7 6 5 5 5 4 4 5 5 5 5 5 6 6 7 7 8 8 9 9 9 9 9 9 8 8 8 9 7 5 4 5 4 4 4 5 5 5 6 6 7 7 8 8 8 7 6 6 5 5 5 5 5 5 5 5 5 5 6 6 7 8 9 9 9 9 10 10 13 15 17 19 21 23 24 25 25 22 19
7 7 6 5 5 4 4 4 3 3 3 4 4 4 5 5 6 6 6 6 7 7 7 7 8 9 11 12 11 11 10 10 10 10 10 9 7 6 6 6 5 5 6 6 6 6 6 7 8 8 7 7 7 8 7 6 6 6 6 5 5 5 5 5 5 5 6 7 9 9 10 10 9 9 10 11 11 11 12 14 16 19 23 23 23 22
9 8 7 6 5 5 5 5 5 5 4 5 5 5 6 6 7 7 7 7 7 7 8 8 8 9 10 12 12 13 12 12 12 11 11 10 9 8 9 8 7 7 7 7 7 7 7 7 8 8 7 7 7 8 7 6 6 6 6 7 7 6 6 5 5 6 6 7 8 9 9 9 9 10 10 9 9 9 9 9 10 12 15 17 18 19
9 8 7 7 7 6 7 7 6 6 6 6 7 7 7 7 7 7 7 7 8 8 9 9 9 9 10 11 12 13 13 11 11 11 10 9 8 8 9 10 9 9 9 8 7 8 8 8 9 10 9 8 8 7 7 7 7 7 7 7 7 7 6 5 5 5 6 7 8 8 9 9 9 10 10 10 9 9 9 8 8 9 11 12 13 13
8 8 8 7 7 7 8 7 7 7 6 6 7 7 7 7 7 7 7 8 8 8 8 9 9 9 10 10 11 12 13 12 12 12 10 10 10 10 10 10 10 9 9 9 9 8 9 10 10 11 11 10 10 10 9 9 9 10 9 8 9 9 8 7 6 6 6 7 7 8 9 9 10 10 11 11 10 9 8 8 8 8 8 10 11 10
10 9 8 8 8 7 7 7 7 8 7 7 6 6 6 6 6 6 7 8 8 7 7 7 7 8 9 10 10 11 12 12 12 12 13 13 13 12 11 10 10 9 9 10 10 10 10 10 11 11 11 10 9 9 10 10 10 10 10 10 10 10 10 9 7 5 6 6 7 7 9 9 9 9 10 11 10 9 8 9 9 9 9 9 9 9
9 9 9 9 8 8 8 8 8 7 7 6 6 7 7 6 6 6 7 8 8 9 8 8 8 9 10 10 9 9 9 10 11 12 12 12 13 13 12 12 11 10 9 9 9 9 10 10 10 9 9 9 9 10 11 10 10 10 10 10 10 9 7 6 5 4 4 5 6 6 7 8 8 9 10 10 9 8 8 9 10 10 10 10 9 9
9 9 8 8 7 7 7 7 6 6 6 6 7 7 6 6 7 7 8 8 9 9 8 8 8 9 10 10 10 9 8 8 9 11 11 12 12 12 12 13 12 11 10 8 7 7 7 8 9 9 8 8 9 10 11 10 10 10 10 10 10 10 8 6 4 4 4 4 5 5 6 7 8 9 9 9 8 7 7 8 8 8 9 9 8 9
8 7 7 6 6 6 6 6 6 7 7 7 8 8 8 7 8 8 7 7 8 8 8 8 8 8 9 10 9 9 8 7 7 7 8 10 12 13 12 11 11 11 11 10 9 8 7 8 9 9 8 8 9 10 10 11 11 11 11 11 10 10 10 8 6 5 5 5 5 6 6 6 7 8 10 10 9 8 7 8 8 8 8 7 7 8
6 6 7 7 7 8 9 8 8 8 8 8 8 8 7 7 6 6 7 8 8 8 8 8 7 8 9 9 8 8 7 7 7 7 6 7 8 9 10 10 10 10 9 10 10 10 10 10 9 9 8 8 9 10 11 11 11 11 10 10 9 9 9 8 8 7 6 6 6 6 7 6 7 8 10 9 8 7 6 8 8 8 8 7 7 8
8 9 9 9 9 9 9 9 8 8 8 8 8 7 7 6 7 7 8 8 9 9 9 8 8 9 9 9 8 8 8 8 7 7 6 6 7 7 7 8 9 10 10 10 11 11 11 11 11 10 9 9 10 10 11 11 11 10 10 9 8 8 8 8 8 7 6 6 6 6 6 6 7 8 9 7 6 5 4 4 5 6 7 7 7 8
9 9 9 9 9 9 9 8 8 8 8 8 8 7 7 7 8 8 8 8 8 9 9 9 9 10 10 9 9 8 8 9 8 7 6 6 5 5 5 6 6 7 9 10 11 11 12 12 12 12 11 10 10 11 11 10 10 9 9 8 8 8 9 8 7 6 6 5 5 5 5 5 6 7 6 5 4 3 2 2 2 3 4 6 7 8
9 9 9 9 9 9 8 8 8 8 8 9 9 8 8 8 10 10 9 8 8 8 9 9 10 10 11 10 10 9 10 9 8 6 6 5 4 4 4 4 5 5 6 8 9 9 10 11 13 14 13 12 12 12 12 11 10 9 8 8 7 7 7 7 6 5 5 5 5 5 5 5 5 5 4 4 3 3 2 2 2 2 3 4 5 7
9 9 9 9 9 9 9 9 9 9 9 9 9 9 8 8 8 8 8 8 8 8 8 9 10 10 10 10 10 10 10 10 9 8 7 6 5 5 5 5 5 5 5 6 6 6 7 8 10 13 16 17 16 14 13 12 11 9 8 7 7 6 6 6 5 4 4 4 5 5 5 4 4 3 3 4 3 3 3 2 2 2 1 2 4 5
9 9 9 9 9 9 9 9 9 9 9 9 9 9 9 8 8 8 8 8 8 8 8 9 9 9 10 10 11 11 11 10 10 10 9 7 6 6 6 5 5 5 5 5 5 4 4 5 7 9 13 18 20 19 14 12 11 10 9 7 6 5 5 5 4 4 4 4 4 5 5 4 3 3 3 3 3 3 3 3 2 2 1 2 3 4
Wind_Direction
284 291 299 311 305 293 284 281 281 283 284 285 285 285 286 286 285 283 279 275 271 268 267 267 267 269 271 272 274 275 277 279 281 281 280 274 267 260 254 252 251 250 252 255 259 262 266 268 270 272 273 274 274 275 274 273 272 271 270 270 270 267 261 252 244 238 234 231 228 225 222 218 215 214 214 217 220 222 223 223 221 218 213 209 206 203
289 292 291 289 284 280 280 278 271 265 273 278 283 288 299 301 301 299 296 288 280 275 275 277 277 276 274 275 275 276 277 280 282 284 284 280 274 267 260 256 254 254 254 256 260 264 268 271 273 275 275 275 275 274 273 271 269 267 265 265 266 266 265 261 256 249 242 235 231 228 224 220 217 215 216 220 223 226 227 227 225 220 213 208 204 203
286 286 283 286 283 279 280 288 285 278 281 289 295 302 309 307 303 299 297 293 287 283 281 281 281 279 275 275 274 275 276 278 281 284 285 284 281 274 266 261 257 254 254 256 259 263 268 273 276 279 279 279 278 277 275 273 270 266 263 261 260 260 261 262 261 258 252 245 238 233 227 222 217 214 215 219 222 225 228 228 226 221 214 207 204 203
279 280 281 286 283 278 277 288 295 300 302 303 304 305 305 300 296 292 288 286 285 283 280 278 277 277 276 274 273 272 273 275 278 281 284 284 281 277 270 264 258 254 253 254 257 261 267 272 278 281 284 284 283 282 279 276 273 269 265 261 257 255 254 256 257 259 259 253 247 241 234 227 220 216 214 216 217 220 223 225 225 222 214 208 205 204
276 279 284 288 287 284 284 294 303 309 310 307 305 304 302 297 293 291 288 285 284 283 283 280 278 276 277 274 273 272 272 274 276 278 280 280 278 275 271 265 260 255 253 253 255 258 263 270 277 282 286 287 288 287 284 281 277 273 268 264 259 255 251 250 251 252 254 254 252 248 242 235 228 221 218 215 214 214 216 220 221 219 213 208 205 205
278 279 288 289 289 290 298 304 311 314 312 306 303 299 296 293 292 292 292 291 289 287 286 285 282 280 279 278 277 276 276 277 277 277 277 276 275 273 270 266 262 258 255 254 254 255 259 265 273 280 284 287 289 288 287 284 280 276 272 268 263 257 252 249 247 246 248 250 251 250 248 243 237 231 225 217 212 210 211 214 215 215 211 208 206 205
281 282 293 291 291 294 299 303 308 310 307 302 299 297 294 292 292 291 291 292 292 292 292 290 288 285 284 283 283 282 281 281 280 278 276 274 272 271 269 267 264 261 258 255 253 252 254 260 267 274 280 284 286 287 287 285 282 279 275 271 266 261 255 250 247 244 244 246 247 248 248 245 241 236 230 221 214 209 208 210 211 211 210 210 209 208
285 286 289 290 294 297 295 294 296 297 294 292 293 294 294 293 291 290 290 292 293 294 294 293 290 287 285 284 284 284 283 282 280 278 276 274 274 273 273 272 270 268 264 259 255 252 252 255 261 267 272 277 280 282 283 283 281 279 276 273 269 264 259 254 249 245 243 243 243 244 245 244 241 238 233 224 216 210 207 208 210 211 212 213 213 211
284 287 285 282 285 290 291 287 284 280 277 278 281 286 292 293 292 290 290 290 289 287 286 286 286 285 283 282 282 284 285 284 283 282 282 281 282 283 284 286 284 279 274 268 262 257 254 256 259 263 266 271 274 277 279 279 279 277 276 273 270 266 262 257 252 248 244 242 241 240 241 241 240 238 233 226 219 212 208 209 210 212 213 215 216 215
280 282 285 279 275 274 279 281 278 272 269 272 274 277 283 289 292 291 288 284 282 279 277 278 281 286 289 290 292 295 297 297 297 298 300 302 305 305 305 305 300 292 285 279 272 266 262 261 261 263 265 267 269 272 274 275 275 275 274 273 270 268 264 260 255 250 246 242 240 238 237 237 237 235 232 226 220 214 211 211 211 212 213 215 216 216
280 279 280 279 275 268 263 270 273 277 287 293 292 288 282 282 285 286 286 284 284 286 288 286 289 296 302 305 307 308 309 307 306 306 307 308 309 310 309 307 304 298 292 286 279 274 269 266 265 264 264 265 267 269 271 273 273 273 273 272 270 268 265 261 257 252 248 244 240 237 235 234 233 232 229 224 220 216 213 212 212 212 212 213 215 216
280 280 277 278 278 278 272 277 286 302 322 314 307 299 292 282 276 277 283 286 290 296 298 297 295 295 298 301 303 304 305 302 302 304 306 307 308 309 308 306 303 300 295 290 284 278 272 268 265 264 263 264 265 267 269 270 271 272 272 271 270 268 265 262 258 254 250 245 241 238 235 233 231 229 226 223 219 216 214 212 211 211 210 211 213 214
281 282 281 280 280 281 285 293 303 311 315 302 292 286 285 283 283 285 286 287 290 294 296 294 292 290 289 290 294 297 298 297 297 299 301 302 305 306 305 304 302 299 297 293 288 282 276 270 265 263 262 262 263 264 266 268 269 270 270 270 269 267 265 262 259 255 251 247 243 239 236 233 231 228 225 222 219 216 213 212 211 210 210 210 211 212
289 289 286 284 283 285 288 294 295 294 290 284 279 276 278 285 291 294 290 288 289 292 293 291 290 291 291 290 290 292 296 298 299 299 299 299 302 305 306 304 303 303 302 298 293 287 281 275 269 265 261 260 261 262 263 265 267 268 269 268 267 266 264 261 259 255 252 248 244 241 238 235 232 229 226 222 219 215 213 211 210 210 210 211 210 210
292 293 289 286 285 286 288 292 290 286 283 283 283 284 288 291 292 291 289 288 291 295 297 294 292 290 285 283 284 291 298 300 301 301 300 298 303 311 317 313 311 310 310 306 301 296 291 283 277 271 266 261 259 259 260 263 266 267 268 268 267 265 263 261 258 256 253 249 246 243 240 237 234 230 227 223 219 215 212 211 210 209 210 210 210 210
292 291 286 285 283 283 283 286 286 285 285 285 284 285 289 288 288 287 286 288 293 299 298 298 296 292 282 279 284 298 313 310 307 306 306 301 304 315 324 315 310 307 308 305 303 303 303 297 288 280 274 266 262 260 260 262 265 266 267 267 266 264 262 260 258 256 254 251 248 245 242 239 236 232 228 224 220 216 212 210 209 208 208 209 209 209
287 285 282 282 281 280 281 280 279 279 283 283 282 281 281 283 286 290 289 294 299 301 296 297 296 295 292 294 300 317 341 331 321 314 310 301 301 307 317 308 302 299 300 298 298 300 304 300 296 291 285 276 270 266 264 263 264 265 266 265 265 263 261 259 257 256 254 252 250 248 246 242 239 235 231 226 222 217 213 210 208 207 207 208 208 209
275 275 276 276 276 277 279 276 275 276 278 280 282 283 282 285 292 297 297 300 302 302 299 298 292 290 295 295 300 323 354 339 325 314 307 297 296 300 308 301 296 294 293 291 291 293 296 296 296 294 292 287 282 276 271 266 264 264 263 263 263 262 260 258 257 255 254 253 252 250 248 246 242 239 234 230 225 220 215 211 209 208 207 208 209 210
265 264 265 268 271 274 274 272 273 275 275 277 281 286 287 291 296 299 297 298 297 295 295 294 289 286 288 286 293 316 349 333 320 309 302 295 293 296 305 299 293 289 288 286 287 289 290 291 291 292 292 290 288 284 278 272 267 263 262 261 261 260 259 257 256 255 254 254 253 252 250 248 245 242 239 234 230 224 219 214 211 209 209 209 209 210
266 262 257 262 268 271 269 267 267 269 271 276 281 284 284 289 291 290 288 291 290 288 290 289 286 284 285 286 291 306 335 328 316 304 296 291 289 290 298 293 288 285 283 281 281 283 283 283 285 286 287 287 286 285 282 276 270 265 261 260 259 259 258 257 256 255 255 254 254 252 251 249 247 244 241 238 233 228 223 218 215 213 211 210 210 211
276 271 265 267 269 270 268 266 266 268 272 278 280 279 279 282 282 280 279 283 283 282 281 279 278 279 281 282 287 299 329 326 313 301 295 289 285 283 287 284 281 279 277 275 274 274 273 274 275 277 279 281 282 281 280 277 272 267 262 260 258 258 258 257 256 255 255 254 254 253 252 250 248 246 243 240 236 231 226 221 218 215 213 212 211 211
285 283 282 279 276 275 276 276 276 276 279 281 280 278 277 277 276 275 276 277 277 276 274 273 275 279 284 284 290 298 319 315 306 301 299 288 283 280 283 279 276 274 272 272 270 268 265 265 266 268 271 275 277 278 278 277 274 270 264 260 258 257 256 256 256 255 255 254 254 254 254 252 250 247 244 241 238 233 229 224 219 216 213 212 211 210
279 280 283 281 279 278 280 281 282 282 283 281 277 274 273 273 276 278 282 279 279 280 281 282 284 286 287 289 291 292 292 290 289 289 287 280 279 280 282 277 274 271 269 269 269 267 262 260 260 263 268 271 273 275 276 276 275 273 268 263 259 256 255 255 255 255 254 254 254 255 255 254 252 249 246 243 239 235 230 225 220 216 213 211 210 209
267 269 271 271 270 270 272 273 274 273 271 268 267 267 265 265 268 272 276 277 279 281 284 286 285 282 279 279 279 278 275 271 270 270 270 271 275 279 280 278 276 274 271 270 269 268 264 260 257 258 263 268 271 272 274 275 275 274 271 267 262 258 255 254 254 254 254 254 254 255 256 255 254 252 249 246 241 237 232 226 221 217 213 211 209 209
258 259 259 259 259 260 261 262 262 261 259 258 259 259 259 261 264 266 267 268 270 272 274 274 274 273 272 272 270 268 265 253 249 252 259 267 272 274 275 276 276 276 275 274 272 270 270 266 262 259 260 265 268 270 272 273 274 274 273 270 265 260 256 254 253 253 253 253 254 255 256 257 257 256 254 250 246 240 234 228 222 218 214 211 209 208
262 262 263 264 265 265 265 266 265 264 263 262 260 259 258 260 262 262 259 257 257 258 260 261 261 262 263 262 262 261 258 241 233 235 246 262 269 270 270 272 274 275 277 278 277 275 275 272 268 263 260 263 266 268 269 271 271 272 272 270 267 263 258 255 254 253 252 252 252 253 254 256 258 260 260 257 252 246 238 231 224 219 214 211 209 208
272 273 274 275 275 274 273 271 269 268 266 265 263 262 261 260 259 256 251 247 244 246 250 252 255 256 256 255 255 256 254 241 231 229 237 257 266 269 269 270 272 274 278 280 279 277 276 275 272 268 263 262 262 263 265 267 268 269 269 268 266 263 260 257 255 254 253 252 252 252 252 255 257 260 261 260 256 251 244 235 227 221 216 212 210 208
271 273 276 277 278 277 275 272 270 268 267 266 264 263 262 259 256 254 251 243 239 241 246 248 252 255 257 256 257 258 256 250 243 239 242 257 263 266 270 270 270 271 278 282 280 277 274 275 275 272 264 260 258 259 261 263 265 266 266 266 264 262 259 257 256 255 255 254 253 253 253 254 256 258 260 259 258 254 247 239 231 224 217 213 212 210
266 268 271 273 274 275 274 272 271 270 268 267 266 264 261 258 254 253 254 246 239 240 246 249 252 258 266 271 273 271 263 259 257 254 252 257 260 263 269 268 266 268 276 283 283 277 270 271 273 271 265 260 258 258 261 262 264 266 267 264 262 260 258 256 256 256 256 256 255 255 254 254 255 255 257 257 256 254 249 242 235 228 220 216 213 211
264 267 270 272 274 275 275 275 274 272 271 270 269 268 265 260 257 257 262 256 249 250 257 261 265 269 277 282 282 277 266 261 257 253 249 254 258 262 264 263 263 266 275 285 286 282 274 271 270 269 267 266 266 269 275 274 273 273 273 267 264 261 258 256 256 256 257 257 257 257 256 255 255 255 255 255 255 253 250 243 238 233 226 220 215 211
270 273 275 275 275 275 275 274 273 272 271 270 269 268 265 261 259 259 262 258 257 260 266 270 271 272 273 276 276 274 269 262 257 253 248 255 260 263 261 263 266 268 271 280 285 286 284 279 271 268 272 277 283 289 294 293 291 288 285 279 274 268 262 258 257 257 258 259 259 259 259 257 256 256 255 255 254 253 250 244 240 236 229 222 216 211
280 280 279 277 275 274 273 273 271 268 264 262 260 258 256 255 253 252 251 250 251 254 259 263 264 263 260 259 260 264 268 267 264 261 260 266 269 270 263 267 272 275 273 268 270 275 282 280 275 271 275 281 286 291 292 292 292 292 292 288 284 276 268 264 262 260 261 261 262 262 261 260 259 257 256 255 254 253 251 246 242 237 231 224 217 212
281 279 276 274 273 273 274 274 273 271 267 264 260 257 255 254 252 250 248 246 245 246 249 253 254 253 252 251 252 256 262 264 263 262 260 263 268 269 264 264 269 272 273 263 260 261 267 271 273 274 273 276 278 280 280 280 280 281 284 283 281 277 272 270 268 267 268 267 267 266 265 262 261 259 257 256 254 253 251 247 243 239 233 227 219 211
275 272 269 268 269 270 271 271 271 270 269 267 264 262 258 255 253 251 248 247 245 243 242 244 245 247 247 249 250 253 258 259 259 256 253 253 256 261 259 257 259 263 266 260 255 254 259 265 273 280 282 282 281 280 279 276 274 273 272 270 270 270 270 270 271 272 273 272 271 270 268 266 264 261 257 255 253 252 250 247 242 237 232 228 220 211
269 265 262 263 266 269 269 268 266 265 264 263 261 260 258 257 255 254 253 252 250 248 246 244 243 244 245 248 251 255 258 260 257 254 250 247 248 251 253 248 249 252 257 257 256 258 267 274 283 290 295 293 290 285 281 279 275 271 267 263 262 262 263 264 266 269 271 271 270 269 268 266 264 260 256 253 251 249 248 245 241 236 231 226 221 213
268 266 265 269 271 272 271 268 265 263 262 261 261 260 261 261 261 260 259 257 256 254 253 251 249 247 247 249 253 258 263 266 265 261 257 252 249 248 251 245 242 244 255 263 269 275 282 287 291 293 293 291 289 286 283 280 278 275 272 268 265 263 261 260 262 264 267 267 266 266 265 264 261 258 254 250 249 248 247 244 240 235 229 224 219 213
277 277 278 277 276 274 273 272 270 267 267 269 270 271 271 268 264 260 255 252 251 251 252 253 252 251 249 250 253 257 263 267 266 263 261 258 256 253 254 253 251 251 257 267 273 278 282 284 285 285 283 280 280 281 283 283 283 281 279 275 271 268 265 262 261 261 263 263 264 265 265 265 263 260 257 252 249 247 246 243 239 233 226 222 216 209
287 286 284 282 279 279 282 285 286 286 286 287 287 285 281 275 269 265 261 256 253 252 253 254 254 254 252 253 254 255 258 259 258 257 255 255 254 254 256 260 259 257 256 262 267 271 272 272 273 273 272 270 270 272 276 279 280 280 281 278 274 268 263 260 259 259 260 262 264 265 266 266 266 264 261 254 250 246 245 243 238 231 223 219 213 206
287 287 287 287 288 290 293 295 295 293 290 287 286 284 283 279 275 271 269 266 263 261 260 261 262 261 258 257 257 256 257 255 252 250 247 246 246 248 254 258 259 258 256 257 257 258 258 261 263 266 269 270 270 270 270 271 273 276 281 282 278 271 259 252 248 249 253 257 260 263 265 265 266 266 264 258 251 246 243 242 237 229 220 218 212 204
288 288 288 289 290 292 293 294 295 295 294 292 291 290 289 287 284 282 279 276 274 271 268 267 267 266 264 262 261 260 258 256 251 247 244 241 240 242 247 252 255 257 256 254 252 251 252 256 259 262 264 266 268 268 267 266 267 271 277 280 278 273 264 253 244 241 243 248 253 257 260 262 263 263 263 259 253 247 241 240 235 227 218 212 207 199
291 291 291 292 293 293 292 293 292 292 290 290 290 290 289 288 288 286 285 281 278 276 274 272 270 268 265 263 261 260 259 257 255 251 248 242 239 238 241 246 249 251 252 251 249 247 247 251 254 257 258 260 262 263 264 263 265 267 270 271 273 274 274 266 256 245 240 242 245 249 254 258 259 259 259 257 253 247 239 236 232 226 219 212 204 193
293 293 292 291 289 287 284 283 282 281 281 282 282 281 280 280 278 277 277 276 274 272 270 268 267 266 264 262 259 257 255 254 251 249 247 242 238 236 238 241 243 245 246 247 245 243 241 244 247 250 252 254 257 261 262 263 263 263 263 266 270 274 275 267 258 245 238 240 242 246 250 254 256 257 258 256 252 245 235 230 226 221 216 211 202 193
287 286 284 282 281 280 280 279 279 278 278 276 275 274 274 273 273 274 273 272 270 268 266 263 263 263 264 262 260 257 253 249 246 244 243 240 237 236 237 239 240 241 241 242 242 241 240 241 243 246 248 252 257 261 265 266 265 263 261 262 265 268 269 265 257 245 234 237 240 244 247 252 256 259 260 257 253 246 238 232 225 219 215 208 199 189
281 281 280 280 281 282 282 282 281 281 281 280 279 278 278 277 276 275 273 271 269 267 265 263 262 262 262 262 262 261 258 253 247 243 240 237 234 233 234 236 238 239 239 242 245 247 247 246 248 250 254 256 259 261 263 264 264 262 260 258 257 257 260 265 267 260 250 245 244 246 248 253 258 262 263 258 254 248 242 233 224 216 212 201 191 184
282 285 289 291 293 294 292 290 289 288 287 285 284 283 282 281 278 276 274 275 274 272 269 267 265 263 261 260 260 261 261 257 252 246 242 238 235 232 231 232 234 237 240 242 244 246 248 251 254 256 257 257 257 257 259 260 261 261 259 255 253 253 255 260 262 260 257 255 254 253 252 256 261 265 265 258 251 243 235 226 218 211 202 191 183 179
297 300 301 300 298 296 293 292 291 288 285 283 281 281 282 284 285 285 285 287 287 286 282 276 270 265 263 263 262 262 261 260 256 252 246 240 235 231 228 227 228 231 234 237 238 240 241 247 251 255 257 255 253 252 252 254 256 258 257 254 252 253 255 256 254 252 250 253 255 257 258 260 264 264 262 256 246 234 224 216 207 198 187 179 175 174
302 300 299 296 294 292 290 289 287 285 282 280 281 282 285 288 290 290 289 288 288 289 288 285 279 274 272 270 268 265 263 261 258 254 249 245 240 235 231 229 229 230 232 235 236 237 239 242 244 247 250 252 253 253 251 251 252 253 255 253 251 250 251 251 248 244 241 244 250 256 261 262 262 260 258 251 239 221 208 200 191 182 175 170 169 169
297 295 293 292 290 288 287 287 286 284 283 284 284 285 286 286 286 285 283 282 281 281 282 283 282 281 281 280 277 273 270 268 265 262 257 254 251 246 241 239 236 235 236 238 238 239 239 240 240 240 241 245 250 253 255 253 251 251 252 250 248 247 246 245 242 237 233 235 239 243 248 251 253 255 256 247 231 206 181 172 171 171 169 166 165 165
293 292 291 290 289 288 288 288 288 287 286 286 287 287 286 284 283 282 280 278 275 274 273 273 274 276 278 279 280 280 279 278 276 273 269 265 263 261 257 251 247 243 243 242 241 241 241 241 239 237 235 238 243 249 253 252 251 249 249 248 245 244 243 241 235 229 224 225 226 227 229 238 244 251 258 247 228 198 161 146 144 153 160 162 163 162
290 289 289 289 289 289 289 289 288 287 287 287 287 287 286 284 281 277 275 273 270 268 266 266 267 269 270 272 274 276 277 277 277 275 272 271 268 266 263 256 249 244 244 242 239 239 240 242 241 238 235 234 236 240 247 248 248 246 244 243 242 242 244 242 235 223 212 211 211 213 219 229 239 251 261 249 228 195 152 135 129 134 142 151 154 155
289 288 289 288 288 287 288 288 287 287 287 287 286 286 285 283 281 277 274 272 270 269 267 267 266 266 267 269 269 270 270 270 270 269 268 267 266 263 260 255 249 245 245 244 242 240 241 247 249 246 240 234 231 230 235 239 241 241 240 239 239 240 244 243 234 217 200 198 199 201 208 218 227 239 251 247 227 195 153 139 133 135 135 138 141 144